TimeMST,TemperatureF,Dew PointF,Humidity,Sea Level PressureIn,VisibilityMPH,Wind Direction,Wind SpeedMPH,Gust SpeedMPH,PrecipitationIn,Events,Conditions,WindDirDegrees,DateUTC
12:15 AM,23.0,21.2,93,29.78,5.0,SSW,8.1,-,N/A,Snow,Light Snow,210,2012-12-08 07:15:00
12:35 AM,23.0,23.0,100,29.77,2.5,SSW,5.8,-,N/A,Snow,Light Snow,200,2012-12-08 07:35:00
12:55 AM,23.0,23.0,100,29.75,4.0,SSW,5.8,-,N/A,Snow,Light Snow,200,2012-12-08 07:55:00
1:15 AM,23.0,23.0,100,29.74,3.0,SSW,6.9,-,N/A,Snow,Light Snow,200,2012-12-08 08:15:00
1:35 AM,24.8,23.0,93,29.73,1.5,SSW,5.8,-,N/A,Snow,Light Snow,210,2012-12-08 08:35:00
1:55 AM,24.8,23.0,93,29.71,2.0,SSW,5.8,-,N/A,Snow,Light Snow,200,2012-12-08 08:55:00
2:15 AM,24.8,23.0,93,29.71,3.0,SSW,9.2,-,N/A,Snow,Light Snow,210,2012-12-08 09:15:00
2:35 AM,24.8,23.0,93,29.71,1.2,SW,10.4,16.1,N/A,Snow,Light Snow,220,2012-12-08 09:35:00
2:55 AM,26.6,23.0,86,29.71,2.5,WSW,11.5,18.4,N/A,Snow,Light Snow,240,2012-12-08 09:55:00
3:15 AM,24.8,23.0,93,29.70,0.2,WSW,17.3,-,N/A,Snow,Heavy Snow,240,2012-12-08 10:15:00
3:35 AM,24.8,21.2,86,29.71,1.8,WNW,24.2,32.2,N/A,Snow,Light Snow,290,2012-12-08 10:35:00
4:15 AM,23.0,19.4,86,29.71,10.0,West,16.1,21.9,N/A,,Overcast,280,2012-12-08 11:15:00
4:35 AM,23.0,19.4,86,29.71,7.0,West,15.0,19.6,N/A,Snow,Light Snow,280,2012-12-08 11:35:00
4:55 AM,23.0,17.6,80,29.69,10.0,West,21.9,29.9,N/A,,Overcast,280,2012-12-08 11:55:00
5:15 AM,23.0,19.4,86,29.69,7.0,West,17.3,28.8,N/A,Snow,Light Snow,270,2012-12-08 12:15:00
5:35 AM,23.0,19.4,86,29.69,3.0,West,17.3,26.5,N/A,Snow,Light Snow,260,2012-12-08 12:35:00
5:55 AM,21.2,19.4,93,29.69,10.0,West,11.5,19.6,N/A,,Scattered Clouds,260,2012-12-08 12:55:00
6:15 AM,21.2,17.6,86,29.69,10.0,West,13.8,17.3,N/A,,Clear,270,2012-12-08 13:15:00
6:35 AM,23.0,17.6,80,29.68,10.0,West,16.1,21.9,N/A,,Mostly Cloudy,270,2012-12-08 13:35:00
6:55 AM,23.0,17.6,80,29.67,7.0,WSW,13.8,-,N/A,Snow,Light Snow,250,2012-12-08 13:55:00
7:15 AM,21.2,19.4,93,29.67,3.0,WSW,10.4,-,N/A,Snow,Light Snow,250,2012-12-08 14:15:00
7:35 AM,21.2,19.4,93,29.67,3.0,WSW,10.4,-,N/A,Snow,Light Snow,240,2012-12-08 14:35:00
7:55 AM,21.2,19.4,93,29.67,2.0,WSW,9.2,-,N/A,Snow,Light Snow,240,2012-12-08 14:55:00
8:15 AM,21.2,19.4,93,29.65,3.0,SSW,8.1,-,N/A,Snow,Light Snow,210,2012-12-08 15:15:00
8:35 AM,21.2,19.4,93,29.66,10.0,SW,12.7,17.3,N/A,,Mostly Cloudy,230,2012-12-08 15:35:00
8:55 AM,19.4,17.6,93,29.69,0.2,WNW,21.9,33.4,N/A,Snow,Light Snow,290,2012-12-08 15:55:00
9:15 AM,17.6,14.0,86,29.71,1.0,WNW,26.5,32.2,N/A,Snow,Light Snow,300,2012-12-08 16:15:00
9:35 AM,17.6,12.2,79,29.72,1.8,NW,28.8,33.4,N/A,,Overcast,310,2012-12-08 16:35:00
9:55 AM,17.6,10.4,73,29.74,2.5,WNW,25.3,34.5,N/A,,Haze,300,2012-12-08 16:55:00
10:15 AM,17.6,8.6,68,29.76,10.0,WNW,21.9,31.1,N/A,,Overcast,300,2012-12-08 17:15:00
10:35 AM,17.6,8.6,68,29.77,10.0,WNW,24.2,32.2,N/A,,Overcast,300,2012-12-08 17:35:00
10:55 AM,19.4,8.6,63,29.78,10.0,WNW,19.6,29.9,N/A,,Overcast,300,2012-12-08 17:55:00
11:15 AM,19.4,8.6,63,29.79,10.0,WNW,20.7,29.9,N/A,,Mostly Cloudy,300,2012-12-08 18:15:00
11:35 AM,19.4,5.0,54,29.79,10.0,NW,27.6,32.2,N/A,,Mostly Cloudy,310,2012-12-08 18:35:00
11:55 AM,19.4,3.2,49,29.79,10.0,WNW,27.6,35.7,N/A,,Mostly Cloudy,300,2012-12-08 18:55:00
12:15 PM,17.6,1.4,49,29.79,10.0,NW,25.3,34.5,N/A,,Mostly Cloudy,310,2012-12-08 19:15:00
12:35 PM,17.6,-0.4,45,29.80,10.0,NW,23.0,33.4,N/A,,Clear,310,2012-12-08 19:35:00
12:55 PM,17.6,1.4,49,29.80,10.0,WNW,24.2,33.4,N/A,,Scattered Clouds,300,2012-12-08 19:55:00
1:15 PM,17.6,3.2,53,29.81,10.0,WNW,23.0,28.8,N/A,,Scattered Clouds,300,2012-12-08 20:15:00
1:35 PM,17.6,3.2,53,29.81,10.0,WNW,19.6,28.8,N/A,,Clear,300,2012-12-08 20:35:00
1:55 PM,17.6,1.4,49,29.82,10.0,NW,20.7,29.9,N/A,,Clear,320,2012-12-08 20:55:00
2:15 PM,17.6,3.2,53,29.83,10.0,NW,20.7,27.6,N/A,,Clear,320,2012-12-08 21:15:00
2:35 PM,17.6,3.2,53,29.83,10.0,NW,17.3,25.3,N/A,,Clear,310,2012-12-08 21:35:00
2:55 PM,17.6,3.2,53,29.84,10.0,WNW,17.3,24.2,N/A,,Clear,300,2012-12-08 21:55:00
3:15 PM,17.6,1.4,49,29.84,10.0,WNW,16.1,-,N/A,,Clear,300,2012-12-08 22:15:00
3:35 PM,17.6,3.2,53,29.85,10.0,WNW,18.4,-,N/A,,Clear,300,2012-12-08 22:35:00
3:55 PM,15.8,3.2,58,29.85,10.0,WNW,13.8,19.6,N/A,,Clear,300,2012-12-08 22:55:00
4:15 PM,14.0,3.2,62,29.87,10.0,WNW,12.7,-,N/A,,Clear,300,2012-12-08 23:15:00
4:35 PM,12.2,3.2,67,29.87,10.0,WNW,11.5,-,N/A,,Clear,290,2012-12-08 23:35:00
4:55 PM,10.4,1.4,67,29.88,10.0,WNW,6.9,-,N/A,,Clear,300,2012-12-08 23:55:00
5:15 PM,6.8,-0.4,72,29.88,10.0,WNW,10.4,-,N/A,,Clear,300,2012-12-09 00:15:00
5:35 PM,6.8,-0.4,72,29.88,10.0,West,8.1,-,N/A,,Clear,280,2012-12-09 00:35:00
5:55 PM,5.0,-0.4,78,29.89,10.0,NW,3.5,-,N/A,,Clear,320,2012-12-09 00:55:00
6:15 PM,3.2,-2.2,78,29.90,10.0,Calm,Calm,-,N/A,,Clear,0,2012-12-09 01:15:00
6:35 PM,3.2,-2.2,78,29.91,10.0,North,3.5,-,N/A,,Clear,350,2012-12-09 01:35:00
7:15 PM,3.2,-4.0,72,29.92,10.0,NW,4.6,-,N/A,,Clear,310,2012-12-09 02:15:00
7:35 PM,-0.4,-5.8,78,29.92,10.0,WNW,4.6,-,N/A,,Clear,300,2012-12-09 02:35:00
7:55 PM,-2.2,-5.8,85,29.92,10.0,NW,5.8,-,N/A,,Clear,310,2012-12-09 02:55:00
8:15 PM,-4.0,-4.0,100,29.92,10.0,WNW,6.9,-,N/A,,Clear,290,2012-12-09 03:15:00
8:35 PM,-4.0,-9.4,78,29.92,10.0,Calm,Calm,-,N/A,,Clear,0,2012-12-09 03:35:00
8:55 PM,-4.0,-7.6,85,29.93,10.0,WNW,5.8,-,N/A,,Clear,300,2012-12-09 03:55:00
9:15 PM,-5.8,-9.4,84,29.93,10.0,WNW,5.8,-,N/A,,Clear,290,2012-12-09 04:15:00
9:35 PM,-4.0,-7.6,85,29.93,10.0,NW,4.6,-,N/A,,Clear,310,2012-12-09 04:35:00
9:55 PM,-4.0,-7.6,85,29.94,10.0,NW,5.8,-,N/A,,Mostly Cloudy,310,2012-12-09 04:55:00
10:15 PM,-2.2,-7.6,78,29.95,10.0,West,6.9,-,N/A,,Overcast,270,2012-12-09 05:15:00
10:35 PM,-4.0,-7.6,85,29.95,10.0,WNW,6.9,-,N/A,,Overcast,290,2012-12-09 05:35:00
10:55 PM,-2.2,-7.6,78,29.95,10.0,NW,6.9,-,N/A,,Overcast,310,2012-12-09 05:55:00
11:15 PM,-0.4,-7.6,72,29.95,10.0,WNW,9.2,-,N/A,,Overcast,300,2012-12-09 06:15:00
11:35 PM,1.4,-5.8,72,29.95,10.0,WNW,10.4,-,N/A,,Overcast,300,2012-12-09 06:35:00
11:55 PM,1.4,-5.8,72,29.95,10.0,WNW,9.2,-,N/A,,Overcast,300,2012-12-09 06:55:00